Starlink 31690

operational
NORAD ID: 59581 Int'l Des: 2024-076 Owner: SPXS Country: US Constellation: starlink
LEOCIRCULAR

关于 Starlink 31690

正在加载描述...

实时位置

正在加载3D地球...

即将过境

高度历史

Altitude vs Time

uPlot chart will show altitude changes over time

两行轨道根数

1 59581U 24076T 25306.44083264 .00038902 00000-0 14221-2 0 9998
2 59581 43.0049 7.4623 0001395 337.2240 22.8550 15.27432408 87059
Epoch: Nov 2, 2025 • Age: 34 hours

当前状态

高度 482.9 km
速度 7.63 km/s
星下点 -5.86°S, 6.34°W
发射日期 Apr 23, 2024
运行时间 1.5 years
类型 internet

技术详情

分类 Payload
质量 730.00 kg
干质量 700.00 kg
总质量 730.00 kg
长度 0.30 m
直径 4.10 m
跨度 29.00 m
形状 Box + pan
制造商 SPXS
平台类型 Starlink V2M
阶段状态 In Orbit
所有者/国家 SPXS/US

大型星座

Loading constellations...